START_TIME,STEP,MOV.,M6,t_acc.,M7,t_acc.,M19,t_acc.,H36,t_acc.
1979-07-06 09:00:27.780 ,0,0,2.,12.0,0.,12.0,0.,12.0,1.,12.0
1979-07-06 09:00:39.780 ,0,0,3.,12.0,0.,12.0,0.,12.0,3.,12.0
1979-07-06 09:00:51.780 ,0,1,3.,12.0,0.,12.0,0.,12.0,2.,12.0
1979-07-06 09:01:03.780 ,0,1,2.,12.0,0.,12.0,0.,12.0,2.,12.0
1979-07-06 09:01:15.780 ,0,0,4.,12.0,0.,12.0,0.,12.0,2.,12.0
1979-07-06 09:01:27.780 ,0,0,3.,12.0,0.,12.0,0.,12.0,6.,12.0
1979-07-06 09:01:39.780 ,1,1,8.,12.0,0.,12.0,0.,12.0,0.,12.0
1979-07-06 09:01:51.780 ,1,1,4.,12.0,0.,12.0,0.,12.0,1.,12.0
1979-07-06 09:02:03.780 ,1,0,2.,12.0,0.,12.0,0.,12.0,3.,12.0
1979-07-06 09:02:15.780 ,1,0,5.,12.0,0.,12.0,0.,12.0,1.,12.0
1979-07-06 09:02:27.780 ,2,1,0.,12.0,0.,12.0,0.,12.0,0.,12.0
1979-07-06 09:02:39.780 ,2,1,3.,12.0,0.,12.0,0.,12.0,1.,12.0
1979-07-06 09:02:51.780 ,2,0,4.,12.0,0.,12.0,0.,12.0,0.,12.0
1979-07-06 09:03:03.780 ,2,0,1.,12.0,0.,12.0,0.,12.0,1.,12.0
1979-07-06 09:03:15.780 ,3,1,5.,12.0,0.,12.0,0.,12.0,2.,12.0
1979-07-06 09:03:27.780 ,3,1,4.,12.0,0.,12.0,0.,12.0,0.,12.0
1979-07-06 09:03:39.780 ,3,0,6.,12.0,0.,12.0,0.,12.0,2.,12.0
1979-07-06 09:03:51.780 ,3,0,10.,12.0,0.,12.0,0.,12.0,1.,12.0
1979-07-06 09:04:03.780 ,4,1,6.,12.0,0.,12.0,0.,12.0,0.,12.0
1979-07-06 09:04:15.780 ,4,1,15.,12.0,0.,12.0,0.,12.0,3.,12.0
1979-07-06 09:04:27.780 ,4,0,9.,12.0,0.,12.0,0.,12.0,2.,12.0
1979-07-06 09:04:39.780 ,4,0,8.,12.0,0.,12.0,0.,12.0,3.,12.0
1979-07-06 09:04:51.780 ,5,1,12.,12.0,0.,12.0,0.,12.0,2.,12.0
1979-07-06 09:05:03.780 ,5,1,6.,12.0,0.,12.0,0.,12.0,5.,12.0
1979-07-06 09:05:15.780 ,5,0,8.,12.0,0.,12.0,0.,12.0,4.,12.0
1979-07-06 09:05:27.780 ,5,0,9.,12.0,0.,12.0,0.,12.0,5.,12.0
1979-07-06 09:05:39.780 ,6,1,7.,12.0,0.,12.0,0.,12.0,0.,12.0
1979-07-06 09:05:51.780 ,6,1,7.,12.0,0.,12.0,0.,12.0,1.,12.0
1979-07-06 09:06:03.780 ,6,0,7.,12.0,0.,12.0,0.,12.0,3.,12.0
1979-07-06 09:06:15.780 ,6,0,6.,12.0,0.,12.0,0.,12.0,9.,12.0
1979-07-06 09:06:27.780 ,7,0,7.,12.0,0.,12.0,0.,12.0,2.,12.0
1979-07-06 09:06:39.780 ,7,0,0.,12.0,0.,12.0,0.,12.0,0.,12.0
1979-07-06 09:06:51.780 ,7,0,0.,12.0,0.,12.0,0.,12.0,0.,12.0
1979-07-06 09:07:03.780 ,7,0,0.,12.0,0.,12.0,0.,12.0,0.,12.0
1979-07-06 09:07:15.780 ,4,1,1.,12.0,0.,12.0,0.,12.0,0.,12.0
1979-07-06 09:07:27.780 ,4,1,7.,12.0,0.,12.0,0.,12.0,5.,12.0
1979-07-06 09:07:39.780 ,0,1,2.,12.0,0.,12.0,0.,12.0,1.,12.0
1979-07-06 09:07:51.780 ,0,1,1.,12.0,0.,12.0,0.,12.0,1.,12.0
1979-07-06 09:08:03.780 ,3,1,0.,12.0,0.,12.0,0.,12.0,1.,12.0
1979-07-06 09:08:15.780 ,3,1,7.,12.0,0.,12.0,0.,12.0,2.,12.0
1979-07-06 09:08:27.780 ,7,1,1.,12.0,0.,12.0,0.,12.0,1.,12.0
1979-07-06 09:08:39.780 ,7,1,2.,12.0,0.,12.0,0.,12.0,0.,12.0
1979-07-06 09:08:51.780 ,4,1,0.,12.0,0.,12.0,0.,12.0,0.,12.0
1979-07-06 09:09:03.780 ,4,1,5.,12.0,0.,12.0,0.,12.0,0.,12.0
1979-07-06 09:09:15.780 ,0,1,5.,12.0,0.,12.0,0.,12.0,0.,12.0
1979-07-06 09:09:27.780 ,0,1,3.,12.0,0.,12.0,0.,12.0,0.,12.0
1979-07-06 09:09:39.780 ,3,1,3.,12.0,0.,12.0,0.,12.0,0.,12.0
1979-07-06 09:09:51.780 ,3,1,2.,12.0,0.,12.0,0.,12.0,0.,12.0
1979-07-06 09:10:03.780 ,7,1,6.,12.0,0.,12.0,0.,12.0,4.,12.0
1979-07-06 09:10:15.780 ,7,1,4.,12.0,0.,12.0,0.,12.0,0.,12.0
1979-07-06 09:10:27.780 ,4,1,2.,12.0,0.,12.0,0.,12.0,1.,12.0
1979-07-06 09:10:39.780 ,4,1,6.,12.0,0.,12.0,0.,12.0,2.,12.0
1979-07-06 09:10:51.780 ,0,1,1.,12.0,0.,12.0,0.,12.0,1.,12.0
1979-07-06 09:11:03.780 ,0,1,5.,12.0,0.,12.0,0.,12.0,1.,12.0
1979-07-06 09:11:15.780 ,3,1,3.,12.0,0.,12.0,0.,12.0,0.,12.0
1979-07-06 09:11:27.780 ,3,1,2.,12.0,0.,12.0,0.,12.0,0.,12.0
1979-07-06 09:11:39.780 ,7,1,6.,12.0,0.,12.0,0.,12.0,2.,12.0
1979-07-06 09:11:51.780 ,7,1,3.,12.0,0.,12.0,0.,12.0,1.,12.0
1979-07-06 09:12:03.780 ,4,1,2.,12.0,0.,12.0,0.,12.0,1.,12.0
1979-07-06 09:12:15.780 ,4,1,9.,12.0,0.,12.0,0.,12.0,2.,12.0
1979-07-06 09:12:27.780 ,0,1,2.,12.0,0.,12.0,0.,12.0,1.,12.0
1979-07-06 09:12:39.780 ,0,1,0.,12.0,0.,12.0,0.,12.0,0.,12.0
1979-07-06 09:12:51.780 ,3,1,3.,12.0,0.,12.0,0.,12.0,0.,12.0
1979-07-06 09:13:03.780 ,3,1,3.,12.0,0.,12.0,0.,12.0,0.,12.0
1979-07-06 09:13:15.780 ,7,1,6.,12.0,0.,12.0,0.,12.0,2.,12.0
1979-07-06 09:13:27.780 ,7,1,1.,12.0,0.,12.0,0.,12.0,0.,12.0
1979-07-06 09:13:39.780 ,4,1,3.,12.0,0.,12.0,0.,12.0,1.,12.0
1979-07-06 09:13:51.780 ,4,1,5.,12.0,0.,12.0,0.,12.0,2.,12.0
1979-07-06 09:14:03.780 ,0,1,3.,12.0,0.,12.0,0.,12.0,1.,12.0
1979-07-06 09:14:15.780 ,0,1,3.,12.0,0.,12.0,0.,12.0,1.,12.0
1979-07-06 09:14:27.780 ,3,1,1.,12.0,0.,12.0,0.,12.0,0.,12.0
1979-07-06 09:14:39.780 ,3,1,2.,12.0,0.,12.0,0.,12.0,1.,12.0
1979-07-06 09:14:51.780 ,7,1,5.,12.0,0.,12.0,0.,12.0,1.,12.0
1979-07-06 09:15:03.780 ,7,1,1.,12.0,0.,12.0,0.,12.0,0.,12.0
1979-07-06 09:15:15.780 ,4,1,0.,12.0,0.,12.0,0.,12.0,3.,12.0
1979-07-06 09:15:27.780 ,4,1,1.,12.0,0.,12.0,0.,12.0,2.,12.0
1979-07-06 09:15:39.780 ,0,1,0.,12.0,0.,12.0,0.,12.0,0.,12.0
1979-07-06 09:15:51.780 ,0,1,1.,12.0,0.,12.0,0.,12.0,2.,12.0
1979-07-06 09:16:03.780 ,3,1,1.,12.0,0.,12.0,0.,12.0,0.,12.0
1979-07-06 09:16:15.780 ,3,1,0.,12.0,0.,12.0,0.,12.0,1.,12.0
1979-07-06 09:16:27.780 ,7,1,3.,12.0,0.,12.0,0.,12.0,0.,12.0
1979-07-06 09:16:39.780 ,7,1,2.,12.0,0.,12.0,0.,12.0,2.,12.0
1979-07-06 09:16:51.780 ,4,1,1.,12.0,0.,12.0,0.,12.0,1.,12.0
1979-07-06 09:17:03.780 ,4,1,3.,12.0,0.,12.0,0.,12.0,4.,12.0
1979-07-06 09:17:15.780 ,0,1,2.,12.0,0.,12.0,0.,12.0,0.,12.0
1979-07-06 09:17:27.780 ,0,1,1.,12.0,0.,12.0,0.,12.0,1.,12.0
1979-07-06 09:17:39.780 ,0,0,0.,12.0,0.,12.0,0.,12.0,1.,12.0
1979-07-06 09:17:51.780 ,0,0,3.,12.0,0.,12.0,0.,12.0,0.,12.0
1979-07-06 09:18:03.780 ,0,0,4.,12.0,0.,12.0,0.,12.0,1.,12.0
1979-07-06 09:18:15.780 ,0,0,4.,12.0,0.,12.0,0.,12.0,1.,12.0
1979-07-06 09:18:27.780 ,5,1,1.,12.0,0.,12.0,0.,12.0,1.,12.0
1979-07-06 09:18:39.780 ,5,1,2.,12.0,0.,12.0,0.,12.0,1.,12.0
1979-07-06 09:18:51.780 ,5,0,2.,12.0,0.,12.0,0.,12.0,3.,12.0
1979-07-06 09:19:03.780 ,5,0,4.,12.0,0.,12.0,0.,12.0,1.,12.0
1979-07-06 09:19:15.780 ,4,1,4.,12.0,0.,12.0,0.,12.0,1.,12.0
1979-07-06 09:19:27.780 ,4,1,2.,12.0,0.,12.0,0.,12.0,0.,12.0
1979-07-06 09:19:39.780 ,4,0,1.,12.0,0.,12.0,0.,12.0,2.,12.0
1979-07-06 09:19:51.780 ,4,0,1.,12.0,0.,12.0,0.,12.0,0.,12.0
1979-07-06 09:20:03.780 ,3,1,2.,12.0,0.,12.0,0.,12.0,2.,12.0
1979-07-06 09:20:15.780 ,3,1,1.,12.0,0.,12.0,0.,12.0,0.,12.0
1979-07-06 09:20:27.780 ,3,0,3.,12.0,0.,12.0,0.,12.0,1.,12.0
1979-07-06 09:20:39.780 ,3,0,1.,12.0,0.,12.0,0.,12.0,1.,12.0
1979-07-06 09:20:51.780 ,2,1,3.,12.0,0.,12.0,0.,12.0,0.,12.0
1979-07-06 09:21:03.780 ,2,1,1.,12.0,0.,12.0,0.,12.0,0.,12.0
1979-07-06 09:21:15.780 ,2,0,0.,12.0,0.,12.0,0.,12.0,0.,12.0
1979-07-06 09:21:27.780 ,2,0,1.,12.0,0.,12.0,0.,12.0,1.,12.0
1979-07-06 09:21:39.780 ,1,1,1.,12.0,0.,12.0,0.,12.0,0.,12.0
1979-07-06 09:21:51.780 ,1,1,1.,12.0,0.,12.0,0.,12.0,1.,12.0
1979-07-06 09:22:03.780 ,1,0,1.,12.0,0.,12.0,0.,12.0,1.,12.0
1979-07-06 09:22:15.780 ,1,0,0.,12.0,0.,12.0,0.,12.0,1.,12.0
1979-07-06 09:22:27.780 ,0,1,3.,12.0,0.,12.0,0.,12.0,1.,12.0
1979-07-06 09:22:39.780 ,0,1,2.,12.0,0.,12.0,0.,12.0,1.,12.0
1979-07-06 09:22:51.780 ,0,0,2.,12.0,0.,12.0,0.,12.0,1.,12.0
1979-07-06 09:23:03.780 ,0,0,4.,12.0,0.,12.0,0.,12.0,2.,12.0
1979-07-06 09:23:15.780 ,0,1,3.,12.0,0.,12.0,0.,12.0,4.,12.0
1979-07-06 09:23:27.780 ,0,1,3.,12.0,0.,12.0,0.,12.0,1.,12.0
1979-07-06 09:23:39.780 ,0,0,1.,12.0,0.,12.0,0.,12.0,3.,12.0
1979-07-06 09:23:51.780 ,0,0,2.,12.0,0.,12.0,0.,12.0,1.,12.0
1979-07-06 09:24:03.780 ,1,1,6.,12.0,0.,12.0,0.,12.0,1.,12.0
1979-07-06 09:24:15.780 ,1,1,3.,12.0,0.,12.0,0.,12.0,2.,12.0
1979-07-06 09:24:27.780 ,1,0,1.,12.0,0.,12.0,0.,12.0,0.,12.0
1979-07-06 09:24:39.780 ,1,0,3.,12.0,0.,12.0,0.,12.0,2.,12.0
1979-07-06 09:24:51.780 ,2,1,0.,12.0,0.,12.0,0.,12.0,1.,12.0
1979-07-06 09:25:03.780 ,2,1,0.,12.0,0.,12.0,0.,12.0,0.,12.0
1979-07-06 09:25:15.780 ,2,0,0.,12.0,0.,12.0,0.,12.0,0.,12.0
1979-07-06 09:25:27.780 ,2,0,0.,12.0,0.,12.0,0.,12.0,1.,12.0
1979-07-06 09:25:39.780 ,3,1,3.,12.0,0.,12.0,0.,12.0,1.,12.0
1979-07-06 09:25:51.780 ,3,1,1.,12.0,0.,12.0,0.,12.0,0.,12.0
1979-07-06 09:26:03.780 ,3,0,3.,12.0,0.,12.0,0.,12.0,3.,12.0
1979-07-06 09:26:15.780 ,3,0,2.,12.0,0.,12.0,0.,12.0,0.,12.0
1979-07-06 09:26:27.780 ,4,1,4.,12.0,0.,12.0,0.,12.0,0.,12.0
1979-07-06 09:26:39.780 ,4,1,1.,12.0,0.,12.0,0.,12.0,2.,12.0
1979-07-06 09:26:51.780 ,4,0,3.,12.0,0.,12.0,0.,12.0,0.,12.0
1979-07-06 09:27:03.780 ,4,0,8.,12.0,0.,12.0,0.,12.0,3.,12.0
1979-07-06 09:27:15.780 ,5,1,4.,12.0,0.,12.0,0.,12.0,0.,12.0
1979-07-06 09:27:27.780 ,5,1,23.,12.0,0.,12.0,0.,12.0,7.,12.0
1979-07-06 09:27:39.780 ,5,0,19.,12.0,0.,12.0,0.,12.0,10.,12.0
1979-07-06 09:27:51.780 ,5,0,20.,12.0,0.,12.0,0.,12.0,8.,12.0
1979-07-06 09:28:03.780 ,6,1,23.,12.0,0.,12.0,0.,12.0,8.,12.0
1979-07-06 09:28:15.780 ,6,1,30.,12.0,0.,12.0,0.,12.0,11.,12.0
1979-07-06 09:28:27.780 ,6,0,17.,12.0,0.,12.0,0.,12.0,5.,12.0
1979-07-06 09:28:39.780 ,6,0,22.,12.0,0.,12.0,0.,12.0,7.,12.0
1979-07-06 09:28:51.780 ,7,1,17.,12.0,0.,12.0,0.,12.0,5.,12.0
1979-07-06 09:29:03.780 ,7,1,4.,12.0,0.,12.0,0.,12.0,1.,12.0
1979-07-06 09:29:15.780 ,7,0,0.,12.0,0.,12.0,0.,12.0,0.,12.0
1979-07-06 09:29:27.780 ,7,0,0.,12.0,0.,12.0,0.,12.0,0.,12.0
1979-07-06 09:29:39.780 ,7,1,0.,12.0,0.,12.0,0.,12.0,0.,12.0
1979-07-06 09:29:51.780 ,7,1,0.,12.0,0.,12.0,0.,12.0,0.,12.0
1979-07-06 09:30:03.780 ,7,0,0.,12.0,0.,12.0,0.,12.0,0.,12.0
1979-07-06 09:30:15.780 ,7,0,0.,12.0,0.,12.0,0.,12.0,0.,12.0
1979-07-06 09:30:27.780 ,6,1,0.,12.0,0.,12.0,0.,12.0,0.,12.0
1979-07-06 09:30:39.780 ,6,1,14.,12.0,0.,12.0,0.,12.0,3.,12.0
1979-07-06 09:30:51.780 ,6,0,11.,12.0,0.,12.0,0.,12.0,5.,12.0
1979-07-06 09:31:03.780 ,6,0,13.,12.0,0.,12.0,0.,12.0,4.,12.0
1979-07-06 09:31:15.780 ,5,1,16.,12.0,0.,12.0,0.,12.0,5.,12.0
1979-07-06 09:31:27.780 ,5,1,10.,12.0,0.,12.0,0.,12.0,3.,12.0
1979-07-06 09:31:39.780 ,5,0,14.,12.0,0.,12.0,0.,12.0,3.,12.0
1979-07-06 09:31:51.780 ,5,0,14.,12.0,0.,12.0,0.,12.0,3.,12.0
1979-07-06 09:32:03.780 ,4,1,19.,12.0,0.,12.0,0.,12.0,2.,12.0
1979-07-06 09:32:15.780 ,4,1,5.,12.0,0.,12.0,0.,12.0,3.,12.0
1979-07-06 09:32:27.780 ,4,0,4.,12.0,0.,12.0,0.,12.0,1.,12.0
1979-07-06 09:32:39.780 ,4,0,9.,12.0,0.,12.0,0.,12.0,2.,12.0
1979-07-06 09:32:51.780 ,3,1,7.,12.0,0.,12.0,0.,12.0,1.,12.0
1979-07-06 09:33:03.780 ,3,1,4.,12.0,0.,12.0,0.,12.0,0.,12.0
1979-07-06 09:33:15.780 ,0,0,2.,12.0,0.,12.0,0.,12.0,0.,12.0
1979-07-06 09:33:27.780 ,0,0,5.,12.0,0.,12.0,0.,12.0,0.,12.0
1979-07-06 09:34:58.380 ,0,0,,0,,0,,0,,0
1979-07-06 09:35:10.380 ,0,0,3.,12.0,0.,12.0,0.,12.0,0.,12.0
1979-07-06 09:35:15.780 ,0,1,3.,12.0,0.,12.0,0.,12.0,0.,12.0
1979-07-06 09:35:27.780 ,0,1,5.,12.0,0.,12.0,0.,12.0,2.,12.0
1979-07-06 09:35:39.780 ,0,0,3.,12.0,0.,12.0,0.,12.0,1.,12.0
1979-07-06 09:35:51.780 ,0,0,3.,12.0,0.,12.0,0.,12.0,1.,12.0
1979-07-06 09:36:03.780 ,0,1,3.,12.0,0.,12.0,0.,12.0,1.,12.0
1979-07-06 09:36:15.780 ,0,1,5.,12.0,0.,12.0,0.,12.0,1.,12.0
1979-07-06 09:36:27.780 ,0,0,3.,12.0,0.,12.0,0.,12.0,1.,12.0
1979-07-06 09:36:39.780 ,0,0,3.,12.0,0.,12.0,0.,12.0,0.,12.0
1979-07-06 09:36:51.780 ,1,1,1.,12.0,0.,12.0,0.,12.0,1.,12.0
1979-07-06 09:37:03.780 ,1,1,1.,12.0,0.,12.0,0.,12.0,0.,12.0
1979-07-06 09:37:15.780 ,1,0,5.,12.0,0.,12.0,0.,12.0,0.,12.0
1979-07-06 09:37:27.780 ,1,0,1.,12.0,0.,12.0,0.,12.0,1.,12.0
1979-07-06 09:37:39.780 ,2,1,0.,12.0,0.,12.0,0.,12.0,1.,12.0
1979-07-06 09:37:51.780 ,2,1,1.,12.0,0.,12.0,0.,12.0,1.,12.0
1979-07-06 09:38:03.780 ,2,0,2.,12.0,0.,12.0,0.,12.0,0.,12.0
1979-07-06 09:38:15.780 ,2,0,1.,12.0,0.,12.0,0.,12.0,0.,12.0
1979-07-06 09:38:27.780 ,3,1,6.,12.0,0.,12.0,0.,12.0,0.,12.0
1979-07-06 09:38:39.780 ,3,1,5.,12.0,0.,12.0,0.,12.0,0.,12.0
1979-07-06 09:38:51.780 ,3,0,3.,12.0,0.,12.0,0.,12.0,0.,12.0
1979-07-06 09:39:03.780 ,3,0,1.,12.0,0.,12.0,0.,12.0,2.,12.0
1979-07-06 09:39:15.780 ,4,1,1.,12.0,0.,12.0,0.,12.0,2.,12.0
1979-07-06 09:39:27.780 ,4,1,1.,12.0,0.,12.0,0.,12.0,4.,12.0
1979-07-06 09:39:39.780 ,4,0,4.,12.0,0.,12.0,0.,12.0,1.,12.0
1979-07-06 09:39:51.780 ,4,0,1.,12.0,0.,12.0,0.,12.0,0.,12.0
1979-07-06 09:40:03.780 ,5,1,5.,12.0,0.,12.0,0.,12.0,2.,12.0
1979-07-06 09:40:15.780 ,5,1,7.,12.0,0.,12.0,0.,12.0,3.,12.0
1979-07-06 09:40:27.780 ,5,0,3.,12.0,0.,12.0,0.,12.0,3.,12.0
1979-07-06 09:40:39.780 ,5,0,5.,12.0,0.,12.0,0.,12.0,4.,12.0
1979-07-06 09:40:51.780 ,6,1,1.,12.0,0.,12.0,0.,12.0,1.,12.0
1979-07-06 09:41:03.780 ,6,1,5.,12.0,0.,12.0,0.,12.0,5.,12.0
1979-07-06 09:41:15.780 ,6,0,3.,12.0,0.,12.0,0.,12.0,1.,12.0
1979-07-06 09:41:27.780 ,6,0,4.,12.0,0.,12.0,0.,12.0,3.,12.0
1979-07-06 09:41:39.780 ,7,1,3.,12.0,0.,12.0,0.,12.0,2.,12.0
1979-07-06 09:41:51.780 ,7,1,0.,12.0,0.,12.0,0.,12.0,0.,12.0
1979-07-06 09:42:03.780 ,7,0,0.,12.0,0.,12.0,0.,12.0,0.,12.0
1979-07-06 09:42:15.780 ,7,0,0.,12.0,0.,12.0,0.,12.0,0.,12.0
1979-07-06 09:42:27.780 ,7,1,0.,12.0,0.,12.0,0.,12.0,0.,12.0
1979-07-06 09:42:39.780 ,7,1,0.,12.0,0.,12.0,0.,12.0,0.,12.0
1979-07-06 09:42:51.780 ,7,0,0.,12.0,0.,12.0,0.,12.0,0.,12.0
1979-07-06 09:43:03.780 ,7,0,0.,12.0,0.,12.0,0.,12.0,0.,12.0
1979-07-06 09:43:15.780 ,6,1,0.,12.0,0.,12.0,0.,12.0,0.,12.0
1979-07-06 09:43:27.780 ,6,1,4.,12.0,0.,12.0,0.,12.0,2.,12.0
1979-07-06 09:43:39.780 ,6,0,3.,12.0,0.,12.0,0.,12.0,6.,12.0
1979-07-06 09:43:51.780 ,6,0,7.,12.0,0.,12.0,0.,12.0,2.,12.0
1979-07-06 09:44:03.780 ,5,1,7.,12.0,0.,12.0,0.,12.0,4.,12.0
1979-07-06 09:44:15.780 ,5,1,8.,12.0,0.,12.0,0.,12.0,5.,12.0
1979-07-06 09:44:27.780 ,5,0,6.,12.0,0.,12.0,0.,12.0,2.,12.0
1979-07-06 09:44:39.780 ,5,0,10.,12.0,0.,12.0,0.,12.0,2.,12.0
1979-07-06 09:44:51.780 ,4,1,10.,12.0,0.,12.0,0.,12.0,8.,12.0
1979-07-06 09:45:03.780 ,4,1,4.,12.0,0.,12.0,0.,12.0,4.,12.0
1979-07-06 09:45:15.780 ,4,0,4.,12.0,0.,12.0,0.,12.0,1.,12.0
1979-07-06 09:45:27.780 ,4,0,4.,12.0,0.,12.0,0.,12.0,2.,12.0
1979-07-06 09:45:39.780 ,3,1,7.,12.0,0.,12.0,0.,12.0,3.,12.0
1979-07-06 09:45:51.780 ,3,1,2.,12.0,0.,12.0,0.,12.0,1.,12.0
1979-07-06 09:46:03.780 ,3,0,5.,12.0,0.,12.0,0.,12.0,2.,12.0
1979-07-06 09:46:15.780 ,3,0,2.,12.0,0.,12.0,0.,12.0,0.,12.0
1979-07-06 09:46:27.780 ,2,1,1.,12.0,0.,12.0,0.,12.0,2.,12.0
1979-07-06 09:46:39.780 ,2,1,2.,12.0,0.,12.0,0.,12.0,1.,12.0
1979-07-06 09:46:51.780 ,2,0,3.,12.0,0.,12.0,0.,12.0,0.,12.0
1979-07-06 09:47:03.780 ,2,0,0.,12.0,0.,12.0,0.,12.0,1.,12.0
1979-07-06 09:47:15.780 ,1,1,0.,12.0,0.,12.0,0.,12.0,0.,12.0
1979-07-06 09:47:27.780 ,1,1,3.,12.0,0.,12.0,0.,12.0,0.,12.0
1979-07-06 09:47:39.780 ,1,0,1.,12.0,0.,12.0,0.,12.0,1.,12.0
1979-07-06 09:47:51.780 ,1,0,0.,12.0,0.,12.0,0.,12.0,0.,12.0
1979-07-06 09:48:03.780 ,0,1,0.,12.0,0.,12.0,0.,12.0,0.,12.0
1979-07-06 09:48:15.780 ,0,1,1.,12.0,0.,12.0,0.,12.0,2.,12.0
1979-07-06 09:48:27.780 ,0,0,2.,12.0,0.,12.0,0.,12.0,2.,12.0
1979-07-06 09:48:39.780 ,0,0,3.,12.0,0.,12.0,0.,12.0,0.,12.0
1979-07-06 09:48:51.780 ,0,1,1.,12.0,0.,12.0,0.,12.0,0.,12.0
1979-07-06 09:49:03.780 ,0,1,4.,12.0,0.,12.0,0.,12.0,0.,12.0
1979-07-06 09:49:15.780 ,0,0,1.,12.0,0.,12.0,0.,12.0,0.,12.0
1979-07-06 09:49:27.780 ,0,0,2.,12.0,0.,12.0,0.,12.0,1.,12.0
1979-07-06 09:49:39.780 ,1,1,0.,12.0,0.,12.0,0.,12.0,0.,12.0
1979-07-06 09:49:51.780 ,1,1,0.,12.0,0.,12.0,0.,12.0,1.,12.0
1979-07-06 09:50:03.780 ,1,0,1.,12.0,0.,12.0,0.,12.0,1.,12.0
1979-07-06 09:50:15.780 ,1,0,1.,12.0,0.,12.0,0.,12.0,0.,12.0
1979-07-06 09:50:27.780 ,2,1,1.,12.0,0.,12.0,0.,12.0,1.,12.0
1979-07-06 09:50:39.780 ,2,1,0.,12.0,0.,12.0,0.,12.0,0.,12.0
1979-07-06 09:50:51.780 ,2,0,1.,12.0,0.,12.0,0.,12.0,2.,12.0
1979-07-06 09:51:03.780 ,2,0,1.,12.0,0.,12.0,0.,12.0,0.,12.0
1979-07-06 09:51:15.780 ,3,1,1.,12.0,0.,12.0,0.,12.0,0.,12.0
1979-07-06 09:51:27.780 ,3,1,2.,12.0,0.,12.0,0.,12.0,1.,12.0
1979-07-06 09:51:39.780 ,3,0,3.,12.0,0.,12.0,0.,12.0,1.,12.0
1979-07-06 09:51:51.780 ,3,0,2.,12.0,0.,12.0,0.,12.0,1.,12.0
1979-07-06 09:52:03.780 ,4,1,1.,12.0,0.,12.0,0.,12.0,0.,12.0
1979-07-06 09:52:15.780 ,4,1,1.,12.0,0.,12.0,0.,12.0,2.,12.0
1979-07-06 09:52:27.780 ,4,0,3.,12.0,0.,12.0,0.,12.0,2.,12.0
1979-07-06 09:52:39.780 ,4,0,5.,12.0,0.,12.0,0.,12.0,4.,12.0
1979-07-06 09:52:51.780 ,5,1,3.,12.0,0.,12.0,0.,12.0,1.,12.0
1979-07-06 09:53:03.780 ,5,1,6.,12.0,0.,12.0,0.,12.0,0.,12.0
1979-07-06 09:53:15.780 ,5,0,7.,12.0,0.,12.0,0.,12.0,0.,12.0
1979-07-06 09:53:27.780 ,5,0,6.,12.0,0.,12.0,0.,12.0,2.,12.0
1979-07-06 09:53:39.780 ,6,1,8.,12.0,0.,12.0,0.,12.0,5.,12.0
1979-07-06 09:53:51.780 ,6,1,7.,12.0,0.,12.0,0.,12.0,1.,12.0
1979-07-06 09:54:03.780 ,6,0,8.,12.0,0.,12.0,0.,12.0,1.,12.0
1979-07-06 09:54:15.780 ,6,0,8.,12.0,0.,12.0,0.,12.0,3.,12.0
1979-07-06 09:54:27.780 ,7,0,5.,12.0,0.,12.0,0.,12.0,3.,12.0
1979-07-06 09:54:39.780 ,7,0,2.,12.0,0.,12.0,0.,12.0,0.,12.0
1979-07-06 09:54:51.780 ,7,0,0.,12.0,0.,12.0,0.,12.0,0.,12.0
1979-07-06 09:55:03.780 ,7,0,0.,12.0,0.,12.0,0.,12.0,0.,12.0
1979-07-06 09:55:15.780 ,4,1,2.,12.0,0.,12.0,0.,12.0,3.,12.0
1979-07-06 09:55:27.780 ,4,1,3.,12.0,0.,12.0,0.,12.0,1.,12.0
1979-07-06 09:55:39.780 ,0,1,4.,12.0,0.,12.0,0.,12.0,1.,12.0
1979-07-06 09:55:51.780 ,0,1,2.,12.0,0.,12.0,0.,12.0,1.,12.0
1979-07-06 09:56:03.780 ,3,1,3.,12.0,0.,12.0,0.,12.0,1.,12.0
1979-07-06 09:56:15.780 ,3,1,2.,12.0,0.,12.0,0.,12.0,0.,12.0
1979-07-06 09:56:27.780 ,7,1,6.,12.0,0.,12.0,0.,12.0,4.,12.0
1979-07-06 09:56:39.780 ,7,1,8.,12.0,0.,12.0,0.,12.0,2.,12.0
1979-07-06 09:56:51.780 ,4,1,4.,12.0,0.,12.0,0.,12.0,1.,12.0
1979-07-06 09:57:03.780 ,4,1,8.,12.0,0.,12.0,0.,12.0,2.,12.0
1979-07-06 09:57:15.780 ,0,1,4.,12.0,0.,12.0,0.,12.0,2.,12.0
1979-07-06 09:57:27.780 ,0,1,4.,12.0,0.,12.0,0.,12.0,1.,12.0
1979-07-06 09:57:39.780 ,3,1,2.,12.0,0.,12.0,0.,12.0,0.,12.0
1979-07-06 09:57:51.780 ,3,1,4.,12.0,0.,12.0,0.,12.0,1.,12.0
1979-07-06 09:58:03.780 ,7,1,9.,12.0,0.,12.0,0.,12.0,2.,12.0
1979-07-06 09:58:15.780 ,7,1,6.,12.0,0.,12.0,0.,12.0,2.,12.0
1979-07-06 09:58:27.780 ,4,1,3.,12.0,0.,12.0,0.,12.0,1.,12.0
1979-07-06 09:58:39.780 ,4,1,12.,12.0,0.,12.0,0.,12.0,6.,12.0
1979-07-06 09:58:51.780 ,0,1,8.,12.0,0.,12.0,0.,12.0,1.,12.0
1979-07-06 09:59:03.780 ,0,1,3.,12.0,0.,12.0,0.,12.0,2.,12.0
1979-07-06 09:59:15.780 ,3,1,5.,12.0,0.,12.0,0.,12.0,0.,12.0
1979-07-06 09:59:27.780 ,3,1,2.,12.0,0.,12.0,0.,12.0,0.,12.0
1979-07-06 09:59:39.780 ,7,1,9.,12.0,0.,12.0,0.,12.0,3.,12.0
1979-07-06 09:59:51.780 ,7,1,7.,12.0,0.,12.0,0.,12.0,7.,12.0
1979-07-06 10:00:03.780 ,4,1,8.,12.0,0.,12.0,0.,12.0,4.,12.0
1979-07-06 10:00:15.780 ,4,1,7.,12.0,0.,12.0,0.,12.0,1.,12.0
1979-07-06 10:00:27.780 ,0,1,5.,12.0,0.,12.0,0.,12.0,3.,12.0
1979-07-06 10:00:39.780 ,0,1,7.,12.0,0.,12.0,0.,12.0,1.,12.0
1979-07-06 10:00:51.780 ,3,1,5.,12.0,0.,12.0,0.,12.0,2.,12.0
1979-07-06 10:01:03.780 ,3,1,2.,12.0,0.,12.0,0.,12.0,2.,12.0
1979-07-06 10:01:15.780 ,7,1,17.,12.0,0.,12.0,0.,12.0,5.,12.0
1979-07-06 10:01:27.780 ,7,1,14.,12.0,0.,12.0,0.,12.0,5.,12.0
1979-07-06 10:01:39.780 ,4,1,3.,12.0,0.,12.0,0.,12.0,1.,12.0
1979-07-06 10:01:51.780 ,4,1,25.,12.0,0.,12.0,0.,12.0,7.,12.0
1979-07-06 10:02:03.780 ,0,1,7.,12.0,0.,12.0,0.,12.0,2.,12.0
1979-07-06 10:02:15.780 ,0,1,9.,12.0,0.,12.0,0.,12.0,1.,12.0
1979-07-06 10:02:27.780 ,3,1,5.,12.0,0.,12.0,0.,12.0,1.,12.0
1979-07-06 10:02:39.780 ,3,1,5.,12.0,0.,12.0,0.,12.0,2.,12.0
1979-07-06 10:02:51.780 ,7,1,17.,12.0,0.,12.0,0.,12.0,9.,12.0
1979-07-06 10:03:03.780 ,7,1,12.,12.0,0.,12.0,0.,12.0,8.,12.0
1979-07-06 10:03:15.780 ,4,1,8.,12.0,0.,12.0,0.,12.0,2.,12.0
1979-07-06 10:03:27.780 ,4,1,18.,12.0,0.,12.0,0.,12.0,3.,12.0
1979-07-06 10:03:39.780 ,0,1,3.,12.0,0.,12.0,0.,12.0,3.,12.0
1979-07-06 10:03:51.780 ,0,1,3.,12.0,0.,12.0,0.,12.0,1.,12.0
1979-07-06 10:04:03.780 ,3,1,8.,12.0,0.,12.0,0.,12.0,1.,12.0
1979-07-06 10:04:15.780 ,3,1,8.,12.0,0.,12.0,0.,12.0,2.,12.0
1979-07-06 10:04:27.780 ,7,1,22.,12.0,0.,12.0,0.,12.0,5.,12.0
1979-07-06 10:04:39.780 ,7,1,20.,12.0,0.,12.0,0.,12.0,9.,12.0
1979-07-06 10:04:51.780 ,4,1,3.,12.0,0.,12.0,0.,12.0,4.,12.0
1979-07-06 10:05:03.780 ,4,1,21.,12.0,0.,12.0,0.,12.0,7.,12.0
1979-07-06 10:05:15.780 ,0,1,11.,12.0,0.,12.0,0.,12.0,3.,12.0
1979-07-06 10:05:27.780 ,0,1,11.,12.0,0.,12.0,0.,12.0,2.,12.0
1979-07-06 10:05:39.780 ,0,0,2.,12.0,0.,12.0,0.,12.0,2.,12.0
1979-07-06 10:05:51.780 ,0,0,10.,12.0,0.,12.0,0.,12.0,1.,12.0
1979-07-06 10:06:03.780 ,0,0,27.,12.0,0.,12.0,0.,12.0,10.,12.0
1979-07-06 10:06:15.780 ,0,0,19.,12.0,0.,12.0,0.,12.0,8.,12.0
1979-07-06 10:06:27.780 ,5,1,12.,12.0,0.,12.0,0.,12.0,3.,12.0
1979-07-06 10:06:39.780 ,5,1,30.,12.0,0.,12.0,0.,12.0,7.,12.0
1979-07-06 10:06:51.780 ,5,0,33.,12.0,0.,12.0,0.,12.0,8.,12.0
1979-07-06 10:07:03.780 ,5,0,32.,12.0,0.,12.0,0.,12.0,12.,12.0
1979-07-06 10:07:15.780 ,4,1,26.,12.0,0.,12.0,0.,12.0,12.,12.0
1979-07-06 10:07:27.780 ,4,1,24.,12.0,0.,12.0,0.,12.0,6.,12.0
1979-07-06 10:07:39.780 ,4,0,25.,12.0,0.,12.0,0.,12.0,6.,12.0
1979-07-06 10:07:51.780 ,4,0,13.,12.0,0.,12.0,0.,12.0,6.,12.0
1979-07-06 10:08:03.780 ,3,1,18.,12.0,0.,12.0,0.,12.0,7.,12.0
1979-07-06 10:08:15.780 ,3,1,11.,12.0,0.,12.0,0.,12.0,1.,12.0
1979-07-06 10:08:27.780 ,3,0,9.,12.0,0.,12.0,0.,12.0,1.,12.0
1979-07-06 10:08:39.780 ,3,0,6.,12.0,0.,12.0,0.,12.0,4.,12.0
1979-07-06 10:08:51.780 ,2,1,13.,12.0,0.,12.0,0.,12.0,1.,12.0
1979-07-06 10:09:03.780 ,2,1,7.,12.0,0.,12.0,0.,12.0,1.,12.0
1979-07-06 10:09:15.780 ,2,0,7.,12.0,0.,12.0,0.,12.0,3.,12.0
1979-07-06 10:09:27.780 ,2,0,8.,12.0,0.,12.0,0.,12.0,0.,12.0
1979-07-06 10:09:39.780 ,1,1,6.,12.0,0.,12.0,0.,12.0,1.,12.0
1979-07-06 10:09:51.780 ,1,1,14.,12.0,0.,12.0,0.,12.0,4.,12.0
1979-07-06 10:10:03.780 ,1,0,12.,12.0,0.,12.0,0.,12.0,2.,12.0
1979-07-06 10:10:15.780 ,1,0,11.,12.0,0.,12.0,0.,12.0,2.,12.0
1979-07-06 10:10:27.780 ,0,1,9.,12.0,0.,12.0,0.,12.0,2.,12.0
1979-07-06 10:10:39.780 ,0,1,8.,12.0,0.,12.0,0.,12.0,6.,12.0
1979-07-06 10:10:51.780 ,0,0,13.,12.0,0.,12.0,0.,12.0,3.,12.0
1979-07-06 10:11:03.780 ,0,0,10.,12.0,0.,12.0,0.,12.0,0.,12.0
1979-07-06 10:11:15.780 ,0,1,6.,12.0,0.,12.0,0.,12.0,4.,12.0
1979-07-06 10:11:27.780 ,0,1,5.,12.0,0.,12.0,0.,12.0,2.,12.0
1979-07-06 10:11:39.780 ,0,0,9.,12.0,0.,12.0,0.,12.0,1.,12.0
1979-07-06 10:11:51.780 ,0,0,7.,12.0,0.,12.0,0.,12.0,2.,12.0
1979-07-06 10:12:03.780 ,1,1,14.,12.0,0.,12.0,0.,12.0,2.,12.0
1979-07-06 10:12:15.780 ,1,1,7.,12.0,0.,12.0,0.,12.0,2.,12.0
1979-07-06 10:12:27.780 ,1,0,10.,12.0,0.,12.0,0.,12.0,2.,12.0
1979-07-06 10:12:39.780 ,1,0,7.,12.0,0.,12.0,0.,12.0,4.,12.0
1979-07-06 10:12:51.780 ,2,1,10.,12.0,0.,12.0,0.,12.0,1.,12.0
1979-07-06 10:13:03.780 ,2,1,11.,12.0,0.,12.0,0.,12.0,4.,12.0
1979-07-06 10:13:15.780 ,2,0,16.,12.0,0.,12.0,0.,12.0,6.,12.0
1979-07-06 10:13:27.780 ,2,0,7.,12.0,0.,12.0,0.,12.0,2.,12.0
1979-07-06 10:13:39.780 ,3,1,17.,12.0,0.,12.0,0.,12.0,3.,12.0
1979-07-06 10:13:51.780 ,3,1,10.,12.0,0.,12.0,0.,12.0,4.,12.0
1979-07-06 10:14:03.780 ,3,0,14.,12.0,0.,12.0,0.,12.0,4.,12.0
1979-07-06 10:14:15.780 ,3,0,15.,12.0,0.,12.0,0.,12.0,4.,12.0
1979-07-06 10:14:27.780 ,4,1,17.,12.0,0.,12.0,0.,12.0,6.,12.0
1979-07-06 10:14:39.780 ,4,1,32.,12.0,0.,12.0,0.,12.0,8.,12.0
1979-07-06 10:14:51.780 ,4,0,38.,12.0,0.,12.0,0.,12.0,13.,12.0
1979-07-06 10:15:03.780 ,4,0,32.,12.0,0.,12.0,0.,12.0,6.,12.0
1979-07-06 10:15:15.780 ,5,1,33.,12.0,0.,12.0,0.,12.0,13.,12.0
1979-07-06 10:15:27.780 ,5,1,33.,12.0,0.,12.0,0.,12.0,6.,12.0
1979-07-06 10:15:39.780 ,5,0,41.,12.0,0.,12.0,0.,12.0,7.,12.0
1979-07-06 10:15:51.780 ,5,0,35.,12.0,0.,12.0,0.,12.0,10.,12.0
1979-07-06 10:16:03.780 ,6,1,35.,12.0,0.,12.0,0.,12.0,7.,12.0
1979-07-06 10:16:15.780 ,6,1,20.,12.0,0.,12.0,0.,12.0,9.,12.0
1979-07-06 10:16:27.780 ,6,0,27.,12.0,0.,12.0,0.,12.0,11.,12.0
1979-07-06 10:16:39.780 ,6,0,27.,12.0,0.,12.0,0.,12.0,9.,12.0
1979-07-06 10:16:51.780 ,7,1,18.,12.0,0.,12.0,0.,12.0,10.,12.0
1979-07-06 10:17:03.780 ,7,1,4.,12.0,0.,12.0,0.,12.0,3.,12.0
1979-07-06 10:17:15.780 ,7,0,0.,12.0,0.,12.0,0.,12.0,0.,12.0
1979-07-06 10:17:27.780 ,7,0,0.,12.0,0.,12.0,0.,12.0,0.,12.0
1979-07-06 10:17:39.780 ,7,1,0.,12.0,0.,12.0,0.,12.0,0.,12.0
1979-07-06 10:17:51.780 ,7,1,0.,12.0,0.,12.0,0.,12.0,0.,12.0
1979-07-06 10:18:03.780 ,7,0,0.,12.0,0.,12.0,0.,12.0,0.,12.0
1979-07-06 10:18:15.780 ,7,0,0.,12.0,0.,12.0,0.,12.0,0.,12.0
1979-07-06 10:18:27.780 ,6,1,0.,12.0,0.,12.0,0.,12.0,0.,12.0